Regional Weather Roundup
Issued by NWS Green Bay, WI

Home | Current Version | Previous Version | Text Only | Print | Product List | Glossary On
Versions: 1 2 3 4 5 6 7 8 9 10 11 12 13 14 15 16 17 18 19 20 21 22 23 24 25 26 27 28 29 30 31 32 33 34 35 36 37 38 39 40 41 42 43 44 45 46 47 48 49 50
000
ASUS43 KGRB 182111
RWRGRB

NORTH-CENTRAL AND NORTHEAST WISCONSIN REGIONAL WEATHER ROUNDUP
NATIONAL WEATHER SERVICE GREEN BAY WI
400 PM CDT FRI AUG 18 2017

WIZ005-009-010>012-018-019-182200-
NORTH CENTRAL WISCONSIN

CITY           SKY/WX    TMP DP  RH WIND       PRES   REMARKS
IRONWOOD       MOSUNNY   67  53  61 W7        29.86S
MANITOWISH WTR CLOUDY    67  56  67 NW9       29.86S
ARBOR VITAE    CLOUDY    67  55  66 NW8       29.86R
EAGLE RIVER    PTSUNNY   69  53  56 NW10      29.85R
LAND O LAKES   PTSUNNY   67  53  60 NW10G16   29.86S
RHINELANDER    CLOUDY    70  58  65 W7        29.86R
PHILLIPS       CLOUDY    69  57  67 NW7       29.87S
ANTIGO         CLOUDY    68  57  68 NW10      29.84S
TOMAHAWK         N/A     67  56  68 W8        29.86S
MERRILL        PTSUNNY   68  59  73 NW6       29.86R
$$

WIZ013-073-182200-
NORTHEAST WISCONSIN

CITY           SKY/WX    TMP DP  RH WIND       PRES   REMARKS
IRON MOUNTAIN  CLOUDY    66  54  65 NW14G24   29.81R
MARINETTE      CLOUDY    72  59  63 NW9       29.79S
OCONTO         CLOUDY    71  60  67 W10       29.79S
$$

WIZ017-030-035>037-045-182200-
CENTRAL WISCONSIN

CITY           SKY/WX    TMP DP  RH WIND       PRES   REMARKS
MEDFORD        MOSUNNY   65  58  78 W7        29.87S
WAUSAU         CLOUDY    68  59  73 W12       29.83S
MOSINEE        CLOUDY    68  57  68 W12G17    29.86F
MARSHFIELD     CLOUDY    68  58  70 NW10      29.86S
WISC RAPIDS    CLOUDY    71  60  68 NW10      29.87S
STEVENS POINT  CLOUDY    68  58  72 NW6       29.86S
WAUPACA        CLOUDY    73  58  59 NW13      29.84S
SHAWANO        CLOUDY    71  59  66 W9        29.82R
CLINTONVILLE   CLOUDY    72  55  56 NW12      29.82S
WAUTOMA        MOSUNNY   74  59  59 W15G21    29.85S
$$

WIZ038-039-048-051-182200-
FOX VALLEY

CITY           SKY/WX    TMP DP  RH WIND       PRES   REMARKS
NWS GREEN BAY  CLOUDY    72  64  76 W8        29.81S
APPLETON       PTSUNNY   73  55  53 W15       29.82S
OSHKOSH        PTSUNNY   74  60  61 NW10      29.82F
FOND DU LAC    PTSUNNY   76  58  53 W15       29.83S
$$

WIZ022-050-052-182200-
EAST CENTRAL WISCONSIN

CITY           SKY/WX    TMP DP  RH WIND       PRES   REMARKS
EPHRAIM        MOCLDY    70  58  66 NW8G17    29.78S
WASHINGTON ISL CLOUDY    68  58  70 NW7       29.77S
STURGEON BAY   CLOUDY    70  59  68 W8        29.80F
MANITOWOC      CLOUDY    71  59  65 W8        29.82S
SHEBOYGAN      MOSUNNY   74  62  66 W12G18    29.82F
$$

LMZ563-521-522-541>543-182200-
LAKESHORE

STATION/POSITION TIME  TEMP    WIND        PRES    VSBY  WAVE
                       AIR SEA DIR/SP/G                  HT/PER
                 (UTC) (F)     (DEG/KT/KT) (MB)    (MI)  (FT/S)
SHEBOYGAN LKSHOR 2100   71     290/ 12/ 15 1009.3F
KEWAUNEE LKSHORE 2048   72     280/  7/ 11 1008.4R
NORTHPORT PIER   2040   70     310/ 11/ 17 1008.5R
N MID LAKE BUOY  2050   66 67  290/ 12/ 14 1008.6R         3/ 4
S GREEN BAY BUOY 2100   71 71  270/ 10/ 14 1008.7
SISTER BAY LKSHO 2103   71     310/ 16/ 18   N/A
MENOMINEE LKSHOR 2048   71     310/  7/ 10 1008.4S
$$




USA.gov is the U.S. government's official web portal to all federal, state and local government web resources and services.